Timeline UpdatesTrip UpdatesNews PostsPvt Posts♥♥Travel TipsAdmin PostsConv PostsFollowed PostsChat RequestsBlog PostsPNR Posts

Disclaimer
Search
 
 
Sat Oct 25, 2014 18:09:42 ISTHomeTrainsΣChainsAtlasPNRForumGalleryNewsFAQTripsMembersLoginFeedback
No Recent News for this Train
Other Trains in the News **new
Latest...
running with Inspection Car is of NR [0611/A]; since 2 weeks
Wed Jul 23, 2014 (11:12AM)
⇐ Return Journey: Train# 13483

13484/Farakka Express (via Faizabad)

Time-Table HAS CHANGED.
Sep 03 2014 (1:27PM)
Change Departure Station:
Change Arrival Station:
Post a Train Travel TipPost a Train Travel Tip **new
Post a Comment/Question/Picture/VideoPost a Comment/Question/Picture/Video
Pantry/Catering
✓ Pantry Car Avbl
✓ Catering Avbl
RSA - Rake Sharing
13413/13414/04031/04032
Rake/Coach Composition
LOCO-SLR-UR-UR-S9-S8-S7-S6-S5-S4-S3-S2-S1-PC-B1-A1-UR-UR-UR-UR-UR-SLR-HPCV http://indiarailinfo.com/blog/post/1168926 by manu
Loco
DLI - LKO -> GZB[NR] WAP-5/7; LKO - MLDT ->...
Read more...
LKO[NR] WDM-3D/3A
News    PNR    Forum    Time-Table    Availability    Fare Chart    Map    Arr/Dep History    Trips    Gallery    ΣChains    X/O    Timeline    
Travel Time: 22h 57m    39 halts    Distance: 1059 km    Avg Speed: 46 km/hr
Type: Mail/Express
Zone: ER/Eastern
Departs @ 21:45 (Avg 1m late)
Platform# 7
S T TF 
Old Delhi Junction/DLI 
Arrives @ 20:42 +1 night (Avg 1h 7m late)
Platform# 2
 M W FS
Patna Junction/PNBE 

39 halts. 175 intermediate Stations between Old Delhi Junction and Patna Junction

Show ALL intermediate Stations  Show Old Time-Table

#TrkCodeStation NameX/OArrivesAvgDepartsAvgHaltPFDay#KmSpeedElevZoneAddress
1/==/DLIOld Delhi Junction (16)»  -21:50 21:45+1710.031219mNRNear Chandni Chowk Metro Station, Delhi NCT
2/==/GZBGhaziabad Junction (6)  22:26 22:24+222:28 22:26+22m2120.164217mNRGhaziabad, Uttar Pradesh
3/==/KRJKhurja Junction (4)  23:25+2823:28+333m--182.742199mNCRBulandshahr, Uttar Pradesh
4/==/ALJNAligarh Junction (4)  00:30+2100:35+225m22126.286192mNCRAligarh, Uttar Pradesh
5/==/HRSHathras Junction (3)X  00:56+3201:01+315m--2156.459183mNCRMahamaya Nagar(05722-242803), Uttar Pradesh
6/==/TDLTundla Junction (5)X  01:50+3101:58+328m32204.450167mNCRDistt.Firozabad, Uttar Pradesh
7/==/FZDFirozabad (4)X  02:18+3302:20+372m22220.963164mNCRFirozabad, Uttar Pradesh
8/==/SKBShikohabad Junction (4)X  02:39+3502:41+382m22240.885166mNCRDistrict Firozabad, Uttar Pradesh
9/==/ETWEtawah (5)X  03:20+4103:22+442m32296.265154mNCRDistt. Etawah, Uttar Pradesh
10/==/CNBKanpur Central (10)X  05:30+3705:45+3315m72435.547128mNCRKANPUR-208 001, Uttar Pradesh
11/==/ONUnnao Junction (5)  06:06 06:07+5406:08 06:09+552m--2453.046129mNRUnnao, Uttar Pradesh
12/==/LKOLucknow Charbagh NR (9)X  07:20+4407:45+4725m--2507.549123mNR226004, Uttar Pradesh
13/==/BBKBarabanki Junction (4)  08:20+1:0308:22+1:062m--2536.152122mNRPin-225001, Uttar Pradesh
14|--|DYDDaryabad  09:06+1:0309:07+1:031m--2574.169116mNRFaizabad Rd, Uttar Pradesh
15|--|RDLRudauli (2)  09:27+1:0709:28+1:071m--2597.272112mNRRudauli, Uttar Pradesh
16|--|SLWSohwal  09:47+1:1009:48+1:101m--2620.142107mNRFaizabad Rd, Uttar Pradesh
17|--|FDFaizabad Junction (5)X  10:10+1:1010:15+1:125m--2635.313104mNRFaizabad, Uttar Pradesh
18|--|ACNDAcharya Narendra Dev Nagar  10:25+1:1310:26+1:131m--2637.512104mNRFaizabad, Uttar Pradesh
19|--|AYAyodhya Junction (3)X  10:48+1:0010:49+1:011m12642.06698mNRAyodhya, Uttar Pradesh
20|--|GGJGoshainGanj (3)  11:18+1:0111:19+1:011m--2673.87498mNRGoshainganj, Uttar Pradesh
21|--|ABPAkbarpur Junction (2)  11:37+1:0411:39+1:042m--2696.07292mNRAkbarpur, Uttar Pradesh
22|--|MLPRMalipur (2)  11:55+1:0911:56+1:101m--2715.16292mNRMalipur, Uttar Pradesh
23|--|SHGShahganj Junction (4)X  12:20+1:1412:25 12:27+1:125 7m--2740.15390mNRShahganj, Uttar Pradesh
24|--|JNUJaunpur Junction (5)X  13:05+1:1013:07+1:132m12773.42383mNRJaunpur, Uttar Pradesh
25|--|ZBDZafarabad Junction (4)X  13:24+1:0813:25+1:101m--2779.83683mNRNational Highway 56, Uttar Pradesh
26/==/JLLJalalGanj (2)  13:45+1:0713:46+1:071m--2791.93487mNRJalalganj Railway Station, Uttar Pradesh
27/==/BSBVaranasi Junction (9)X  15:00 14:55+4615:15+4715 20m82831.01882mNRVaranasi 221002, Uttar Pradesh
28/==/MGSMughal Sarai Junction (8)  16:10+4816:25+4915m--2847.57483mECRDistt: Chandauli Pin 232101, Uttar Pradesh
29/==/ZNAZamania (2)X  17:01+5717:03+572m--2891.76777mECRGhazipur, Uttar Pradesh
30/==/DLNDildarnagar Junction (2)X  17:15+5817:17+592m--2905.25272mECRDildarnagar, Uttar Pradesh
31/==/BWHBhadaura (2)X17:26+5917:28+592m--2913.06169mECRGhazipur, Uttar Pradesh
32/==/GMRGahmar (2)X  17:36+5417:38+542m--2921.27968mECRDistt: Ghazipur, Uttar Pradesh
33/==/CSAChausa (2)O  17:45+1:0217:47+1:022m--2930.56068mECRState Highway 14, Bihar
34/==/BXRBuxar (3)X  17:58+1:0718:03+1:055m--2941.48967mECRBuxar, Bihar
35/==/DUREDumraon (3)  18:14+5718:16+572m--2957.78070mECRDumraon, Bihar
36/==/RPRRaghunathpur (4)X  18:28+1:0618:30+1:072m--2973.77469mECRRaghunathpur, Bihar
37/==/BEABihiya (3)  18:42+1:1118:44+1:112m--2988.57167mECRBehea, Bihar
38/==/ARAAra Junction (3)X  19:02+1:0419:07+1:065m--21009.98963mECRDistt: Bhojpur Ph 06182-233411, Bihar
39/==/BTABihta (2)X  19:22+1:2619:24+1:282m--21032.13462mECRDistt: Patna, Bihar
40/==/DNRDanapur (5)X  19:55+1:2220:05+1:2610m--21049.41558mECRKhagaul, Bihar
41/==/PNBEPatna Junction (10)•X  20:42+1:0720:52+1:0910m221058.82257mECRPatna 800001, Bihar
42/==/RJPBRajendra Nagar Bihar (4)  20:59+1:0721:01+1:072m--21061.43455mECRPatna 800001, Bihar
43/==/PNCPatna Saheb (3)X  21:14+1:2321:16+1:252m--21068.74159mECRPatna 800008, Bihar
44/==/FUTFatwa (6)  21:34+1:2321:36+1:242m--21080.95653mECRPatna, Bihar
45/==/BKPBakhtiyarpur Junction (5)O  22:01+1:2422:05+1:244m--21104.23751mECRPatna, Bihar
46/==/BARHBarh (3)  22:34+1:1522:36+1:162m--21122.37049mECRBarh, Bihar
47/==/MKAMokama Junction (4)  22:58+1:2523:03+1:245m--21148.17148mECRPatna, Bihar
48/==/BRYABarhiya (3)  23:18+1:2723:20+1:272m--21165.82247mECRBarahiya, Bihar
49/==/KIULKiul Junction (5)  00:05+1:0900:10+1:095m--31182.26653mECRDist. Lakhisarai, Bihar
50|==|AHAAbhaipur (3)  00:31+1:1700:33+1:172m--31205.26052mERAbhaipur, Bihar
51|=-|JMPJamalpur Junction (4)  00:55+1:2501:05+1:2910m131227.16159mERDist: Munger 06344-243101, Bihar
52|==|BUPBariarpur (3)  01:16+1:3601:18+1:362m--31238.25442mERMunger, Bihar
53|==|SGGSultanGanj (3)  01:38+1:3701:40+1:382m--31256.14742mERSultanganj, Bihar
54|==!BGPBhagalpur Junction (6)  02:12+1:1902:22+1:2310m--31281.15649mERBhagalpur, Bihar
55!==!SBOSabaur (3)  02:30+1:4202:32+1:462m--31288.66142mERSabour, Bihar
56!==!CLGKahalgaon (2)  02:54+2:0002:56+2:022m131311.23744mERBhagalpur, Bihar
57!==!PPTPirpainti (2)  03:29+1:5803:31+1:592m--31331.52653mERBhagalpur, Bihar
58!==!SBGSahibganj Junction (3)X  04:25+1:4304:33+1:518m131355.18138mERSahibganj, Jharkhand
59!==|TPHTinpahar Junction (3)X  05:00 05:01+2:1605:02 05:03+2:172m231392.83545mERBamangawan, Jharkhand
60|==|BHWBarharwa Junction (3)  05:32+2:0905:36+2:104m231409.54036mERBarharwa, Jharkhand
61%==%NFKNew Farakka Junction (3)X  06:03+2:1306:08+2:085m231427.52932mERDist - Murshidabad, West Bengal
62%==%MLDTMalda Town (5)  07:20+2:05---31462.6-30mERDist - Malda, West Bengal
Scroll to Top
Scroll to Bottom